Location: Clyde
(45.1830°S, 169.3170°E)
Time: 17:01:52
(UTC+12:00)

Cosmos 1980 - Pass Details

Date: 14 May 2021
Orbit: 838 x 848 km, 71.0° (Epoch: 16 June)

Event Time Altitude Azimuth Distance (km) Brightness Sun altitude
Rises 18:08:34 0° 6° (N) 3,398 7.0 -8.0°
Reaches altitude 10° 18:11:14 10° 15° (NNE) 2,470 6.2 -8.4°
Maximum altitude 18:16:10 31° 76° (ENE) 1,444 4.5 -9.2°
Drops below altitude 10° 18:21:07 10° 136° (SE) 2,491 5.6 -10.1°
Enters shadow 18:21:43 - 139° (SE) 2,687 5.8 -10.2°
